Home   Weather   Thiruvananthapuram   Past weeks

Flag for India Past Weather in Thiruvananthapuram, Kerala, India — Yesterday and Last 2 Weeks

Now
86 °F

Passing clouds.


Feels Like: 97 °F
Forecast: 82 / 93 °F
Wind: 6 mph from West

Location: Thiruvananthapuram

Current Time: Apr 29, 2017 at 9:24:36 pm

Latest Report: Apr 29, 2017 at 8:30 pm


Visibility: 2 mi

Pressure: 29.80 "Hg

Humidity: 75%

Dew Point: 77 °F

Location of ThiruvananthapuramLocation

Past Weather in Thiruvananthapuram — Graph

°F

Thiruvananthapuram Temperature Yesterday

Maximum temperature yesterday: 91 °F (at 11:00 am)
Minimum temperature yesterday: 81 °F (at 2:00 am)
Average temperature yesterday: 86 °F

High & Low Weather Summary for the Past Weeks

 TemperatureHumidityPressure
High91 °F (Apr 16, 12:30 pm)89% (Apr 14, 11:30 pm)29.89 "Hg (Apr 14, 11:30 pm)
Low81 °F (Apr 18, 2:30 am)59% (Apr 17, 10:00 am)29.68 "Hg (Apr 15, 2:00 pm)
Average86 °F76%29.79 "Hg
* Reported Apr 14 7:30 pm — Apr 29 8:00 pm, Thiruvananthapuram, Weather by CustomWeather, © 2017

Note: Actual official high and low records may vary slightly from our data, if they occured in-between our weather recording intervals... More about our weather records

Advertising

Thiruvananthapuram Weather History for the Previous 24 Hours

Scroll right to see more
 ConditionsComfort  
Time TempWeatherWind HumidityBarometerVisibility
8:00 pm
Sat, Apr 29
86 °FThunderstorms. Passing clouds.8 mph84%29.80 "Hg2 mi
7:30 pm88 °FThunderstorms. Passing clouds.10 mph75%29.80 "Hg2 mi
7:00 pm88 °FScattered clouds.10 mph75%29.80 "Hg3 mi
6:00 pm88 °FHaze.12 mph75%29.74 "Hg3 mi
5:30 pm88 °FPassing clouds.10 mph79%29.77 "Hg4 mi
5:00 pm90 °FPassing clouds.13 mph75%29.74 "Hg4 mi
4:30 pm90 °FPassing clouds.14 mph75%29.74 "Hg4 mi
4:00 pm90 °FPassing clouds.13 mph75%29.74 "Hg4 mi
3:30 pm90 °FPassing clouds.14 mph75%29.74 "Hg4 mi
3:00 pm90 °FPassing clouds.15 mph71%29.77 "Hg4 mi
2:30 pm91 °FPassing clouds.14 mph67%29.77 "Hg4 mi
2:00 pm91 °FPassing clouds.14 mph71%29.77 "Hg4 mi
1:00 pm90 °FScattered clouds.13 mph71%29.80 "Hg3 mi
12:30 pm90 °FScattered clouds.13 mph75%29.83 "Hg3 mi
12:00 pm91 °FScattered clouds.12 mph71%29.83 "Hg3 mi
11:30 am90 °FScattered clouds.10 mph75%29.83 "Hg3 mi
11:00 am90 °FScattered clouds.12 mph71%29.83 "Hg3 mi
10:30 am90 °FScattered clouds.9 mph71%29.86 "Hg3 mi
10:00 am90 °FScattered clouds.9 mph71%29.86 "Hg3 mi
9:30 am90 °FScattered clouds.9 mph71%29.86 "Hg3 mi
9:00 am90 °FHaze.9 mph71%29.86 "Hg3 mi
8:30 am88 °FHaze.9 mph70%29.86 "Hg3 mi
8:00 am86 °FHaze.7 mph79%29.86 "Hg3 mi
7:30 am84 °FHaze.7 mph84%29.83 "Hg3 mi
6:30 am82 °FHaze.6 mph89%29.83 "Hg2 mi
6:00 am84 °FPassing clouds.6 mph84%29.80 "Hg2 mi
5:30 am84 °FPassing clouds.6 mph84%29.80 "Hg2 mi
5:00 am84 °FPassing clouds.6 mph84%29.80 "Hg2 mi
4:30 am84 °FHaze.6 mph84%29.77 "Hg2 mi
4:00 am84 °FHaze.6 mph84%29.77 "Hg2 mi
3:30 am84 °FHaze.6 mph84%29.77 "Hg2 mi
3:00 am84 °FHaze.6 mph84%29.77 "Hg2 mi
2:30 am84 °FHaze.6 mph84%29.77 "Hg2 mi
2:00 am84 °FHaze.5 mph84%29.80 "Hg2 mi
1:30 am84 °FHaze.5 mph84%29.80 "Hg2 mi
11:30 pm
Fri, Apr 28
86 °FHaze.5 mph79%29.83 "Hg2 mi
11:00 pm86 °FHaze.5 mph79%29.83 "Hg2 mi
10:30 pm86 °FHaze.5 mph79%29.83 "Hg2 mi
10:00 pm86 °FHaze.5 mph79%29.83 "Hg2 mi
9:30 pm86 °FHaze.5 mph79%29.80 "Hg2 mi
9:00 pm86 °FHaze.5 mph79%29.80 "Hg2 mi
Weather by CustomWeather, © 2017

See weather overviewHow to use our weather pages